STARLINK-32842, 62822

Orbit data source: Space-Track

STARLINK-32842, 62822 is a payload satellite owned by SpaceX/Seattle (US) in LEO that was launched on Fri, 24 Jan 2025 UTC via an FALCON 9 launch vehicle from the Air Force Western Test Range (AFWTR). Payload-class satellites include a variety of spacecraft equipped with specific instruments for various scientific and technological missions. These include communications satellites like Starlink; space stations such as the ISS; scientific satellites like the Hubble; Earth observation satellites from companies like Planet Labs, Umbra, and HawkEye 360; GPS; miniature CubeSats for education and research; and military/defense satellites.

Loading next visibility...
Identifier
62822, 2025-018S
Orbit
LEO
Country
Flag of USUS
Related business
Manufacturer
SpaceX/Seattle
Mission
Operational Commercial Communications
Bus & Motor
STARLINK V2M, Unknown motor
Mass
730 kg wet, ~700 kg dry
Launch date (UTC)
2025-01-24 (1 year ago)
Launch vehicle
FALCON 9
Launch site
Air Force Western Test Range (AFWTR)
Object type
Payload
Rocket body
Debris
Shape & HBR
Box + 2 Pan, 17.7 m
Radar Cross Section
33.884 m², Large (>1 m²)

Expand to show TLE details & history
Last TLE update: 12 hours ago

TLE from 12 hours ago
0 STARLINK-32842
1 62822U 25018S   26171.34425181  .00008395  00000-0  25947-3 0  9996
2 62822  53.1588 192.1838 0001383  96.1499 263.9662 15.34379677 78907
Epoch: 2026-06-20T08:15Z
TLE epoch observation values (Epoch: 2026-06-20T08:15:43.356Z)
Latitude
0.00005°
Longitude
159.69296°
Altitude
463.764 km
Speed
7.636 km/s
True Right ascension
12h 48m 44s
True Declination
0° 00' 00"
Sunlit
Object was in daylight at epoch
Visualization orbit readout
Latitude
Unknown
Longitude
Unknown
Altitude
Unknown
Speed
Unknown
Apparent Right ascension
Unknown
Apparent Declination
Unknown
Sunlit
N/A
Visualization observer readout
Local Sidereal Time
07:18:47
Azimuth
Unknown
Elevation
Unknown
Doppler factor
Unknown
Orbital elements
Apogee altitude
463.967 km
Perigee altitude
462.075 km
Semi-major axis
6,841.158 km
Eccentricity
0.00014
Inclination
53.1588°
RAAN
192.1838°
Arg. of periapsis
96.1499°
True anomaly
263.95044°
Mean anomaly
263.9662°
Eccentric anomaly
263.95832°
Mean motion
3.83574 °/min
Orbital period
93.85 mins
BSTAR
0.00025947
Loading maneuver chart data...
Computing Atmospheric mass density...
Loading historical data...
Loading historical data...
Loading historical data...
Loading historical data...
Loading historical data...
Loading historical data...
Loading historical data...

Documentation

Showing up to 5 results
|